TimeCST,TemperatureF,Dew PointF,Humidity,Sea Level PressureIn,VisibilityMPH,Wind Direction,Wind SpeedMPH,Gust SpeedMPH,PrecipitationIn,Events,Conditions,WindDirDegrees,DateUTC
12:15 AM,71.8,62.6,73,30.12,10.0,Calm,Calm,-,N/A,Thunderstorm,Unknown,0,2012-11-27 06:15:00
12:35 AM,71.8,63.9,76,30.10,10.0,Calm,Calm,-,N/A,Thunderstorm,Scattered Clouds,0,2012-11-27 06:35:00
12:55 AM,70.7,65.1,82,30.12,10.0,South,8.1,-,N/A,,Scattered Clouds,180,2012-11-27 06:55:00
1:15 AM,70.3,64.8,82,30.10,10.0,SE,5.8,-,N/A,,Scattered Clouds,140,2012-11-27 07:15:00
1:35 AM,69.4,64.9,86,30.09,10.0,North,8.1,-,N/A,,Mostly Cloudy,10,2012-11-27 07:35:00
1:55 AM,69.8,64.8,84,30.08,10.0,NNE,9.2,-,N/A,,Overcast,20,2012-11-27 07:55:00
2:15 AM,70.7,63.9,79,30.09,10.0,NE,9.2,-,N/A,,Mostly Cloudy,50,2012-11-27 08:15:00
2:35 AM,69.8,63.9,81,30.09,10.0,NE,8.1,-,N/A,,Mostly Cloudy,40,2012-11-27 08:35:00
2:55 AM,69.4,62.8,79,30.10,10.0,NNE,11.5,-,N/A,,Scattered Clouds,20,2012-11-27 08:55:00
3:15 AM,68.9,59.0,71,30.10,10.0,NNE,15.0,20.7,N/A,,Scattered Clouds,20,2012-11-27 09:15:00
3:35 AM,67.6,55.6,65,30.12,10.0,NNE,11.5,-,N/A,,Scattered Clouds,30,2012-11-27 09:35:00
3:55 AM,66.2,54.1,65,30.13,10.0,NNE,13.8,-,N/A,,Clear,20,2012-11-27 09:55:00
4:15 AM,65.1,53.6,66,30.14,10.0,North,11.5,-,N/A,,Clear,10,2012-11-27 10:15:00
4:35 AM,63.5,53.6,70,30.15,10.0,North,10.4,-,N/A,,Clear,360,2012-11-27 10:35:00
4:55 AM,63.5,49.8,61,30.16,10.0,NNE,10.4,-,N/A,,Scattered Clouds,20,2012-11-27 10:55:00
5:15 AM,63.1,49.3,61,30.17,10.0,North,10.4,-,N/A,,Overcast,10,2012-11-27 11:15:00
6:35 AM,61.2,48.6,63,30.21,10.0,NNE,8.1,-,N/A,,Scattered Clouds,20,2012-11-27 12:35:00
6:55 AM,60.6,49.1,66,30.22,10.0,NNE,6.9,-,N/A,,Scattered Clouds,20,2012-11-27 12:55:00
7:15 AM,59.5,49.1,68,30.23,10.0,North,9.2,-,N/A,,Clear,10,2012-11-27 13:15:00
7:35 AM,59.9,49.1,67,30.25,10.0,North,12.7,-,N/A,,Scattered Clouds,360,2012-11-27 13:35:00
7:55 AM,61.3,48.9,64,30.27,10.0,North,12.7,19.6,N/A,,Mostly Cloudy,360,2012-11-27 13:55:00
8:15 AM,59.7,48.7,67,30.28,10.0,North,18.4,24.2,N/A,,Scattered Clouds,350,2012-11-27 14:15:00
8:35 AM,59.0,49.1,70,30.31,10.0,North,18.4,25.3,N/A,,Clear,350,2012-11-27 14:35:00
8:55 AM,58.1,45.9,64,30.32,10.0,North,20.7,28.8,N/A,,Clear,360,2012-11-27 14:55:00
9:15 AM,58.1,45.1,62,30.33,10.0,North,18.4,27.6,N/A,,Clear,10,2012-11-27 15:15:00
9:35 AM,59.5,45.5,60,30.34,10.0,North,18.4,25.3,N/A,,Clear,360,2012-11-27 15:35:00
9:55 AM,60.6,45.0,56,30.34,10.0,North,19.6,25.3,N/A,,Clear,10,2012-11-27 15:55:00
10:15 AM,61.0,45.0,56,30.34,10.0,North,17.3,23.0,N/A,,Clear,10,2012-11-27 16:15:00
10:35 AM,62.1,44.8,53,30.35,10.0,North,13.8,23.0,N/A,,Clear,360,2012-11-27 16:35:00
10:55 AM,62.8,44.6,51,30.35,10.0,North,13.8,-,N/A,,Clear,350,2012-11-27 16:55:00
11:15 AM,64.0,45.0,50,30.34,10.0,North,15.0,19.6,N/A,,Clear,350,2012-11-27 17:15:00
11:35 AM,64.6,44.4,48,30.33,10.0,NNW,15.0,20.7,N/A,,Clear,340,2012-11-27 17:35:00
11:55 AM,65.8,44.4,46,30.32,10.0,NNW,13.8,19.6,N/A,,Clear,330,2012-11-27 17:55:00
12:15 PM,66.4,44.4,45,30.32,10.0,NNW,13.8,19.6,N/A,,Clear,340,2012-11-27 18:15:00
12:35 PM,66.9,44.2,44,30.30,10.0,NNW,11.5,-,N/A,,Clear,330,2012-11-27 18:35:00
12:55 PM,67.6,44.4,43,30.30,10.0,NNW,13.8,17.3,N/A,,Clear,340,2012-11-27 18:55:00
1:15 PM,67.3,44.4,44,30.29,10.0,NNW,13.8,18.4,N/A,,Clear,340,2012-11-27 19:15:00
1:35 PM,68.5,44.6,42,30.28,10.0,NW,13.8,-,N/A,,Clear,320,2012-11-27 19:35:00
1:55 PM,69.3,44.8,41,30.28,10.0,NW,12.7,20.7,N/A,,Clear,320,2012-11-27 19:55:00
2:15 PM,69.4,44.6,41,30.28,10.0,NNW,17.3,21.9,N/A,,Clear,330,2012-11-27 20:15:00
2:35 PM,69.4,44.4,41,30.28,10.0,NNW,12.7,17.3,N/A,,Clear,330,2012-11-27 20:35:00
2:55 PM,69.8,44.4,40,30.27,10.0,NNW,13.8,21.9,N/A,,Clear,330,2012-11-27 20:55:00
3:15 PM,70.3,44.1,39,30.27,10.0,NNW,16.1,-,N/A,,Clear,330,2012-11-27 21:15:00
3:35 PM,69.4,43.7,39,30.27,10.0,NNW,15.0,18.4,N/A,,Clear,340,2012-11-27 21:35:00
3:55 PM,69.4,43.7,39,30.27,10.0,NNW,15.0,18.4,N/A,,Clear,340,2012-11-27 21:55:00
4:15 PM,69.8,43.7,39,30.27,10.0,NNW,13.8,-,N/A,,Clear,330,2012-11-27 22:15:00
4:35 PM,69.1,43.9,40,30.28,10.0,NNW,12.7,-,N/A,,Clear,330,2012-11-27 22:35:00
4:55 PM,68.4,43.9,41,30.28,10.0,NNW,11.5,-,N/A,,Clear,330,2012-11-27 22:55:00
5:15 PM,67.5,44.6,44,30.28,10.0,NNW,10.4,-,N/A,,Clear,330,2012-11-27 23:15:00
5:35 PM,66.0,44.6,46,30.28,10.0,NW,6.9,-,N/A,,Clear,320,2012-11-27 23:35:00
5:55 PM,64.0,45.0,50,30.29,10.0,North,6.9,-,N/A,,Clear,360,2012-11-27 23:55:00
6:15 PM,62.6,44.8,52,30.29,10.0,NNW,6.9,-,N/A,,Clear,340,2012-11-28 00:15:00
6:35 PM,61.3,45.0,55,30.30,10.0,North,5.8,-,N/A,,Clear,360,2012-11-28 00:35:00
6:55 PM,60.3,45.5,58,30.31,10.0,North,5.8,-,N/A,,Clear,360,2012-11-28 00:55:00
7:15 PM,58.8,45.0,60,30.31,10.0,North,8.1,-,N/A,,Clear,10,2012-11-28 01:15:00
7:35 PM,60.1,45.5,59,30.32,10.0,NNE,9.2,-,N/A,,Clear,20,2012-11-28 01:35:00
7:55 PM,59.2,45.5,60,30.32,10.0,NNE,9.2,-,N/A,,Clear,20,2012-11-28 01:55:00
8:15 PM,58.6,45.1,61,30.33,10.0,NNE,8.1,-,N/A,,Clear,30,2012-11-28 02:15:00
8:35 PM,57.7,44.8,62,30.33,10.0,NNE,8.1,-,N/A,,Clear,20,2012-11-28 02:35:00
8:55 PM,57.2,44.6,63,30.34,10.0,NNE,6.9,-,N/A,,Clear,30,2012-11-28 02:55:00
9:15 PM,56.3,44.1,64,30.34,10.0,NNE,6.9,-,N/A,,Clear,20,2012-11-28 03:15:00
9:35 PM,55.6,44.1,65,30.35,10.0,NNE,5.8,-,N/A,,Clear,30,2012-11-28 03:35:00
9:55 PM,55.0,43.7,66,30.35,10.0,NNE,4.6,-,N/A,,Clear,30,2012-11-28 03:55:00
10:15 PM,54.5,43.3,66,30.35,10.0,NNE,4.6,-,N/A,,Clear,30,2012-11-28 04:15:00
10:55 PM,53.6,42.8,67,30.35,10.0,NE,5.8,-,N/A,,Clear,40,2012-11-28 04:55:00
11:15 PM,53.1,42.4,67,30.35,10.0,NNE,6.9,-,N/A,,Clear,30,2012-11-28 05:15:00
11:55 PM,51.8,42.3,70,30.35,10.0,NNE,5.8,-,N/A,,Clear,20,2012-11-28 05:55:00